Weather History for Ruidoso, NM

Change the Weather History Date:

Saturday, March 29, 2014

  Actual Average Record
Temperature  
Mean Temperature 46 °F -  
Max Temperature 60 °F 58 °F 69 °F (2012)
Min Temperature 32 °F 35 °F 19 °F (2003)
Degree Days  
Heating Degree Days 19    
Moisture  
Dew Point 20 °F    
Average Humidity 36    
Maximum Humidity 52    
Minimum Humidity 15    
Precipitation  
Precipitation 0.00 in - - ()
Sea Level Pressure  
Sea Level Pressure 30.29 in    
Wind  
Wind Speed 9 mph (SSE)    
Max Wind Speed 20 mph    
Max Gust Speed 25 mph    
Visibility 10 miles    
Events      
Averages and records for this station are not official NWS values.
T = Trace of Precipitation, MM = Missing Value Source: NWS Daily Summary

Daily Weather History Graph

Daily Weather History Graph

Search for Another Location

Airport:

Trip Planner

Search our weather history database for the weather conditions in past years. The results will help you decide how hot, cold, wet, or windy it might be!

Date:

Astronomy

Mar. 29, 2014 Rise Set
Actual Time 6:53 AM MDT 7:20 PM MDT
Civil Twilight 6:28 AM MDT 7:45 PM MDT
Nautical Twilight 5:59 AM MDT 8:14 PM MDT
Astronomical Twilight 5:29 AM MDT 8:44 PM MDT
Moon 6:00 AM MDT (3/29) 6:30 PM MDT (3/29)
Length of Visible Light 13h 16m
Length of Day
12h 26m
Waning Crescent, 1% of the Moon is Illuminated
Mar 29
Waning Crescent
Mar 30
New
Apr 7
First Quarter
Apr 15
Full
Apr 22
Last Quarter

Hourly Weather History & Observations

Time (MDT) Temp. Windchill Dew Point Humidity Pressure Visibility Wind Dir Wind Speed Gust Speed Precip Events Conditions
12:15 AM 41.0 °F 36.4 °F 14.0 °F 33% 30.28 in 10.0 mi West 6.9 mph - N/A   Clear
12:35 AM 41.0 °F 36.4 °F 15.8 °F 36% 30.28 in 10.0 mi NW 6.9 mph - N/A   Clear
12:55 AM 41.0 °F 36.4 °F 14.0 °F 33% 30.29 in 10.0 mi WNW 6.9 mph - N/A   Clear
1:15 AM 41.0 °F 37.1 °F 14.0 °F 33% 30.29 in 10.0 mi WNW 5.8 mph - N/A   Clear
1:35 AM 41.0 °F 35.8 °F 12.2 °F 31% 30.29 in 10.0 mi West 8.1 mph - N/A   Clear
1:55 AM 39.2 °F 33.6 °F 12.2 °F 33% 30.29 in 10.0 mi West 8.1 mph - N/A   Clear
2:15 AM 41.0 °F 36.4 °F 10.4 °F 29% 30.29 in 10.0 mi West 6.9 mph - N/A   Clear
2:35 AM 41.0 °F 35.8 °F 10.4 °F 29% 30.29 in 10.0 mi West 8.1 mph - N/A   Clear
2:55 AM 41.0 °F 35.8 °F 10.4 °F 29% 30.29 in 10.0 mi WNW 8.1 mph - N/A   Clear
3:15 AM 41.0 °F 35.8 °F 10.4 °F 29% 30.29 in 10.0 mi West 8.1 mph - N/A   Clear
3:35 AM 37.4 °F 32.1 °F 12.2 °F 36% 30.28 in 10.0 mi WSW 6.9 mph - N/A   Clear
3:55 AM 37.4 °F 30.8 °F 12.2 °F 36% 30.28 in 10.0 mi West 9.2 mph - N/A   Clear
4:15 AM 39.2 °F 34.2 °F 12.2 °F 33% 30.28 in 10.0 mi West 6.9 mph - N/A   Clear
4:35 AM 32.0 °F 27.5 °F 12.2 °F 44% 30.29 in 10.0 mi East 4.6 mph - N/A   Clear
4:55 AM 37.4 °F 34.9 °F 10.4 °F 33% 30.29 in 10.0 mi SSW 3.5 mph - N/A   Clear
5:15 AM 32.0 °F 26.4 °F 12.2 °F 44% 30.29 in 10.0 mi SSW 5.8 mph - N/A   Clear
5:35 AM 35.6 °F 32.8 °F 10.4 °F 35% 30.31 in 10.0 mi East 3.5 mph - N/A   Clear
5:55 AM 32.0 °F 23.6 °F 14.0 °F 48% 30.31 in 10.0 mi South 10.4 mph - N/A   Clear
6:15 AM 32.0 °F 25.6 °F 14.0 °F 48% 30.32 in 10.0 mi South 6.9 mph - N/A   Clear
6:35 AM 32.0 °F 26.4 °F 15.8 °F 51% 30.33 in 10.0 mi SSE 5.8 mph - N/A   Clear
6:55 AM 32.0 °F 27.5 °F 15.8 °F 51% 30.34 in 10.0 mi SSE 4.6 mph - N/A   Clear
7:15 AM 32.0 °F 27.5 °F 15.8 °F 51% 30.35 in 10.0 mi SSE 4.6 mph - N/A   Clear
7:35 AM 33.8 °F 30.8 °F 15.8 °F 48% 30.36 in 10.0 mi SE 3.5 mph - N/A   Clear
7:55 AM 35.6 °F 29.9 °F 17.6 °F 48% 30.36 in 10.0 mi SE 6.9 mph - N/A   Clear
8:15 AM 37.4 °F 30.8 °F 21.2 °F 52% 30.37 in 10.0 mi SE 9.2 mph - N/A   Clear
8:35 AM 39.2 °F 33.0 °F 23.0 °F 52% 30.37 in 10.0 mi SE 9.2 mph - N/A   Clear
8:55 AM 39.2 °F 34.2 °F 23.0 °F 52% 30.38 in 10.0 mi SE 6.9 mph - N/A   Clear
9:15 AM 41.0 °F 35.8 °F 21.2 °F 45% 30.38 in 10.0 mi SE 8.1 mph - N/A   Clear
9:35 AM 42.8 °F 38.0 °F 23.0 °F 46% 30.38 in 10.0 mi ESE 8.1 mph - N/A   Clear
9:55 AM 42.8 °F 37.5 °F 21.2 °F 42% 30.38 in 10.0 mi ESE 9.2 mph - N/A   Clear
10:15 AM 44.6 °F 39.2 °F 24.8 °F 46% 30.38 in 10.0 mi ESE 10.4 mph - N/A   Clear
10:35 AM 46.4 °F 41.9 °F 24.8 °F 43% 30.38 in 10.0 mi East 9.2 mph - N/A   Clear
10:55 AM 46.4 °F 40.7 °F 24.8 °F 43% 30.37 in 10.0 mi East 12.7 mph 19.6 mph N/A   Clear
11:15 AM 50.0 °F - 24.8 °F 37% 30.37 in 10.0 mi ESE 15.0 mph 19.6 mph N/A   Clear
11:35 AM 50.0 °F - 24.8 °F 37% 30.36 in 10.0 mi SE 13.8 mph 20.7 mph N/A   Clear
11:55 AM 51.8 °F - 24.8 °F 35% 30.36 in 10.0 mi ESE 15.0 mph 20.7 mph N/A   Clear
12:15 PM 53.6 °F - 26.6 °F 35% 30.35 in 10.0 mi SE 13.8 mph 20.7 mph N/A   Clear
12:35 PM 53.6 °F - 26.6 °F 35% 30.34 in 10.0 mi ESE 13.8 mph 25.3 mph N/A   Clear
12:55 PM 53.6 °F - 24.8 °F 33% 30.32 in 10.0 mi ESE 18.4 mph 25.3 mph N/A   Clear
1:15 PM 55.4 °F - 24.8 °F 31% 30.32 in 10.0 mi SE 15.0 mph 23.0 mph N/A   Clear
1:35 PM 55.4 °F - 24.8 °F 31% 30.31 in 10.0 mi ESE 9.2 mph 20.7 mph N/A   Clear
1:55 PM 57.2 °F - 23.0 °F 27% 30.30 in 10.0 mi ESE 13.8 mph 21.9 mph N/A   Clear
2:15 PM 57.2 °F - 23.0 °F 27% 30.28 in 10.0 mi ESE 19.6 mph 23.0 mph N/A   Clear
2:35 PM 57.2 °F - 23.0 °F 27% 30.27 in 10.0 mi SE 13.8 mph 20.7 mph N/A   Clear
2:55 PM 59.0 °F - 23.0 °F 25% 30.26 in 10.0 mi East 11.5 mph 21.9 mph N/A   Clear
3:15 PM 57.2 °F - 24.8 °F 29% 30.24 in 10.0 mi ESE 18.4 mph 23.0 mph N/A   Clear
3:35 PM 59.0 °F - 24.8 °F 27% 30.23 in 10.0 mi ESE 17.3 mph 23.0 mph N/A   Clear
3:55 PM 59.0 °F - 24.8 °F 27% 30.23 in 10.0 mi ESE 16.1 mph 25.3 mph N/A   Clear
4:15 PM 59.0 °F - 24.8 °F 27% 30.22 in 10.0 mi ESE 13.8 mph 23.0 mph N/A   Clear
4:35 PM 59.0 °F - 24.8 °F 27% 30.21 in 10.0 mi SE 16.1 mph 23.0 mph N/A   Clear
4:55 PM 59.0 °F - 24.8 °F 27% 30.21 in 10.0 mi SSE 15.0 mph 24.2 mph N/A   Clear
5:15 PM 60.8 °F - 14.0 °F 16% 30.21 in 10.0 mi SSW 16.1 mph 19.6 mph N/A   Clear
5:35 PM 60.8 °F - 12.2 °F 15% 30.21 in 10.0 mi SSW 13.8 mph 21.9 mph N/A   Clear
5:55 PM 60.8 °F - 14.0 °F 16% 30.20 in 10.0 mi SSW 15.0 mph - N/A   Clear
6:15 PM 59.0 °F - 12.2 °F 16% 30.20 in 10.0 mi SSW 13.8 mph 20.7 mph N/A   Clear
6:35 PM 59.0 °F - 14.0 °F 17% 30.20 in 10.0 mi South 15.0 mph - N/A   Clear
6:55 PM 57.2 °F - 23.0 °F 27% 30.21 in 10.0 mi South 5.8 mph - N/A   Clear
7:15 PM 53.6 °F - 24.8 °F 33% 30.22 in 10.0 mi SSE 8.1 mph - N/A   Clear
7:35 PM 53.6 °F - 24.8 °F 33% 30.22 in 10.0 mi SSE 11.5 mph - N/A   Clear
7:55 PM 50.0 °F - 24.8 °F 37% 30.22 in 10.0 mi South 9.2 mph - N/A   Clear
8:15 PM 50.0 °F - 24.8 °F 37% 30.22 in 10.0 mi SSE 9.2 mph - N/A   Clear
8:35 PM 48.2 °F - 24.8 °F 40% 30.23 in 10.0 mi SSE 9.2 mph - N/A   Clear
8:55 PM 48.2 °F - 24.8 °F 40% 30.24 in 10.0 mi ESE 6.9 mph - N/A   Clear
9:15 PM 46.4 °F 42.9 °F 24.8 °F 43% 30.25 in 10.0 mi SE 6.9 mph - N/A   Clear
9:35 PM 46.4 °F 44.3 °F 24.8 °F 43% 30.25 in 10.0 mi SSE 4.6 mph - N/A   Clear
9:55 PM 46.4 °F 43.5 °F 24.8 °F 43% 30.25 in 10.0 mi SSE 5.8 mph - N/A   Clear
10:15 PM 44.6 °F 39.7 °F 23.0 °F 43% 30.25 in 10.0 mi SSE 9.2 mph - N/A   Clear
10:35 PM 44.6 °F 41.4 °F 23.0 °F 43% 30.25 in 10.0 mi South 5.8 mph - N/A   Clear
10:55 PM 44.6 °F 40.7 °F 23.0 °F 43% 30.25 in 10.0 mi SSE 6.9 mph - N/A   Clear
11:15 PM 44.6 °F - 23.0 °F 43% 30.25 in 10.0 mi Calm Calm - N/A   Clear
11:35 PM 46.4 °F 44.3 °F 21.2 °F 37% 30.24 in 10.0 mi SSW 4.6 mph - N/A   Clear
11:55 PM 46.4 °F 42.4 °F 21.2 °F 37% 30.24 in 10.0 mi SSW 8.1 mph - N/A   Clear